Location: Bois de la Silve
(44.4667°N, 6.7833°E)
Time: 00:31:37
(UTC+00:00)

USA 238 DEB - Pass Details

Date: 24 October 2020
Orbit: 1001 x 1211 km, 63.5° (Epoch: 22 November)

Event Time Altitude Azimuth Distance (km) Brightness Sun altitude
Exits shadow 03:45:18 49° 238° (WSW) 1,302 3.7 -24.6°
Maximum altitude 03:47:11 75° 309° (NW) 1,078 3.5 -24.3°
Drops below altitude 10° 03:54:05 10° 35° (NE) 2,926 6.5 -23.1°
Sets 03:56:50 0° 38° (NE) 3,916 7.3 -22.6°
